Date,TemperatureHighF,TemperatureAvgF,TemperatureLowF,DewpointHighF,DewpointAvgF,DewpointLowF,HumidityHigh,HumidityAvg,HumidityLow,PressureMaxIn,PressureMinIn,WindSpeedMaxMPH,WindSpeedAvgMPH,GustSpeedMaxMPH,PrecipitationSumIn
2013-2-1,72,62,53,56,49,38,74,62,53,30.27,30.16,12,2,14,0.00
2013-2-2,71,62,54,54,49,38,87,63,50,30.26,30.12,8,1,13,0.00
2013-2-3,74,62,54,53,49,40,91,65,29,30.17,30.07,5,1,10,0.00
2013-2-4,75,61,48,55,48,41,86,65,33,30.14,30.03,5,1,12,0.00
2013-2-5,76,65,53,63,58,50,93,77,54,30.09,30.00,9,1,10,0.00
2013-2-6,78,70,59,67,62,57,94,78,62,30.10,30.02,7,2,11,0.00
2013-2-7,79,73,69,67,64,62,83,73,62,30.07,29.93,8,2,12,0.00
2013-2-8,83,74,67,70,66,63,91,78,58,30.02,29.90,5,1,9,0.00
2013-2-9,77,70,64,67,63,60,93,79,65,30.17,30.01,11,4,15,0.00
2013-2-10,73,71,69,63,62,59,76,71,68,30.26,30.14,14,6,18,0.00
2013-2-11,78,73,69,66,63,61,80,73,66,30.21,30.10,9,2,13,0.00
2013-2-12,83,73,63,70,66,60,92,79,58,30.11,29.96,8,1,11,0.00
2013-2-13,85,76,67,73,69,64,94,81,66,30.00,29.88,9,2,16,0.00
2013-2-14,76,70,62,71,66,61,94,90,81,30.00,29.85,8,2,17,1.30
2013-2-15,72,66,62,67,64,61,95,92,80,30.02,29.93,5,1,9,0.28
2013-2-16,74,65,54,64,56,44,94,76,46,30.08,29.88,6,2,14,0.00
2013-2-17,59,51,44,44,29,18,72,46,24,30.31,30.08,9,2,17,0.00
2013-2-18,68,59,46,57,45,32,70,62,51,30.33,30.21,13,4,16,0.00
2013-2-19,77,71,60,66,61,53,87,71,60,30.20,30.08,11,2,14,0.01
2013-2-20,76,70,62,67,64,60,94,82,60,30.11,30.01,9,1,13,0.02
2013-2-21,80,72,63,69,65,61,94,81,66,30.09,29.99,8,2,14,0.00
2013-2-22,80,75,72,71,69,66,88,81,73,30.09,30.01,10,4,16,0.00
2013-2-23,82,76,71,73,70,68,92,82,72,30.04,29.91,11,3,15,0.33
2013-2-24,88,76,70,74,70,68,95,83,55,29.99,29.89,7,1,10,0.00
2013-2-25,83,75,68,74,70,66,93,84,72,29.91,29.80,10,2,16,0.00
2013-2-26,87,79,74,73,71,68,89,77,57,29.88,29.79,11,3,15,0.01
2013-2-27,77,71,63,73,65,60,94,83,63,29.96,29.85,4,1,8,0.50
2013-2-28,71,64,59,63,54,49,94,72,47,30.00,29.90,4,1,8,0.00